Location: El Burgo
(40.8049°N, 4.7633°W)
Time: 23:39:27
(UTC+00:00)

Daily predictions for brighter satellites

Satellite Brightness Start Highest point End
(mag) Time Altitude Azimuth Time Altitude Azimuth Time Altitude Azimuth
USA 234 3.4 18:09:50 10° ESE 18:16:17 64° NE 18:22:45 10° NW
Cosmos 773 Rocket 4.5 18:15:59 10° S 18:20:51 39° ESE 18:25:44 10° NE
Cosmos 2237 Rocket 2.6 18:16:27 10° N 18:21:50 42° ENE 18:27:12 10° SE
COSMOS 2428 2.9 18:16:39 10° NNW 18:22:23 82° WSW 18:28:06 10° SSE
Cosmos 2208 Rocket 4.4 18:21:55 10° S 18:26:47 41° ESE 18:31:43 10° NNE
ARIANE 5 R/B 3.0 18:21:42 10° S 18:26:48 68° WSW 18:31:51 10° NNW
SJ-12 4.4 18:25:07 10° S 18:28:51 60° W 18:32:37 10° NNW
Okean 1 Rocket 3.0 18:25:50 10° N 18:30:13 73° E 18:34:32 10° SSE
SAR-Lupe-4 3.5 18:28:02 10° SSE 18:31:34 73° ENE 18:35:09 10° N
Cosmos 44 Rocket 3.3 18:30:49 10° SSW 18:35:39 71° ESE 18:40:41 10° NE
Cosmos 1346 Rocket 4.0 18:33:50 10° SE 18:36:17 17° E 18:38:45 10° NE
Cosmos 1315 Rocket 4.3 18:33:31 10° NNW 18:37:05 39° W 18:40:38 10° SSW
Cosmos 2221 Rocket 3.8 18:33:14 10° S 18:37:41 79° W 18:42:12 10° N
Okean 2 Rocket 3.3 18:34:00 10° N 18:38:24 77° W 18:42:43 10° S
Cosmos 1025 Rocket 3.8 18:34:31 10° SSW 18:38:44 57° W 18:43:01 10° N
Cosmos 2061 Rocket 4.1 18:32:39 10° N 18:39:03 85° W 18:45:19 10° S
Cosmos 1602 3.9 18:37:38 10° SSE 18:39:56 24° E 18:42:15 10° NE
CZ-4C R/B 3.7 18:36:56 10° W 18:40:31 25° NW 18:44:49 10° NNE
Cosmos 836 Rocket 4.5 18:37:04 10° SSW 18:42:19 77° ESE 18:47:37 10° NNE
Cosmos 2227 Rocket 2.5 18:37:34 10° S 18:42:54 46° ESE 18:48:17 10° NE
Delta 2 Rocket 4.0 18:43:08 10° WSW 18:45:50 29° S 18:48:18 12° ESE
SL-16 R/B 3.4 18:43:55 10° N 18:48:08 21° NE 18:50:50 15° E
Helios 1A Rocket 3.7 18:49:53 18° ENE 18:50:35 20° E 18:53:01 10° SE
NOSS 3-4 (A) 4.0 18:45:12 10° NNW 18:51:55 53° NE 18:59:45 10° SE
NOSS 3-4 (C) 4.1 18:45:29 10° NNW 18:52:13 53° NE 19:00:02 10° SE
Resurs 1-3 3.7 18:50:19 10° S 18:54:36 78° WSW 18:58:55 10° NNW
Sich 1 Rocket 4.2 18:50:43 10° NNW 18:55:14 63° W 18:59:42 10° S
Aureole 3 Rocket 2.3 18:51:44 10° N 18:55:17 86° W 18:58:18 10° S
Cosmos 2150 Rocket 4.3 18:51:12 10° N 18:56:02 40° ENE 19:00:51 10° SE
Cosmos 2298 Rocket 4.4 18:55:06 10° N 19:00:07 42° ENE 19:05:07 10° SE
Resurs 01 Rocket 1.7 18:58:12 10° SSE 19:02:27 53° ENE 19:06:45 10° N
BREEZE-M DEB (TANK) 3.4 19:00:50 10° SSW 19:04:02 47° SE 19:11:13 15° ENE
Cosmos 1782 3.1 19:05:28 10° NNE 19:08:44 32° ENE 19:09:32 29° ESE
Gbstr 26 Del rocket 4.2 19:02:56 10° SW 19:09:22 66° SE 19:15:03 19° ENE
CARTOSAT-1 3.4 19:08:06 10° SSE 19:12:17 87° WSW 19:16:31 10° NNW
Atlas Centaur 2 3.9 19:08:34 10° WSW 19:15:34 34° S 19:20:56 14° SE
CSL-04 Rocket 4.3 19:17:14 27° E 19:18:27 30° ENE 19:23:00 10° N
ARIANE 6 FM1 Upper Stage 4.3 19:19:15 10° N 19:21:31 18° NNE 19:21:31 18° NNE
Cosmos 2297 Rocket 3.8 19:22:30 10° WSW 19:27:33 33° WNW 19:32:40 10° N
BREEZE-M DEB (TANK) 4.3 19:23:30 10° NW 19:27:46 74° NNE 19:36:56 21° ESE
Radarsat Rocket 4.5 19:22:25 10° S 19:28:11 62° WSW 19:34:21 10° NNW
Cosmos 2058 2.7 19:25:11 10° S 19:28:57 54° E 19:29:54 42° NE
SJ-6B 2.3 19:28:11 28° SSE 19:29:53 75° ENE 19:33:19 10° N
SPOT 5 3.4 19:31:23 36° ENE 19:31:23 36° ENE 19:35:57 10° N
Tiangong -2.2 19:29:26 10° W 19:32:34 77° NNW 19:32:34 77° NNW
Tsikada Rocket 4.2 19:27:07 10° SSE 19:32:49 42° E 19:38:32 10° NNE
SeaSat 1 4.3 19:29:23 10° S 19:33:43 32° WSW 19:38:04 10° NW
Cosmos 2084 3.5 19:31:00 10° SSW 19:35:01 51° ESE 19:35:01 51° ESE
IRAS Rocket 4.2 19:32:16 10° SSE 19:37:52 86° ENE 19:43:31 10° NNW
Cosmos 2228 3.3 19:38:53 10° NNW 19:43:03 64° W 19:47:12 10° S
Cosmos 2219 3.3 19:38:24 10° S 19:43:57 54° ESE 19:45:34 41° ENE
Cosmos 1544 Rocket 3.6 19:42:18 10° N 19:46:04 57° NE 19:46:04 57° NE
BREEZE M DEB (TANK) 4.3 19:27:52 10° SSW 19:46:57 51° SSE 19:49:17 39° E
Cosmos 1975 Rocket 4.3 19:45:35 10° SSW 19:49:41 40° WNW 19:53:47 10° N
Cosmos 2263 Rocket 2.2 19:48:02 10° SSW 19:53:42 79° WNW 19:58:28 15° NNE
Orbus 7S? 3.5 19:50:39 10° NW 19:56:52 72° NNE 19:56:52 72° NNE
Cosmos 2034 Rocket 3.9 19:57:15 10° N 20:03:27 85° W 20:09:40 10° S
Cosmos 2237 Rocket 4.2 20:00:54 10° NW 20:05:37 28° WSW 20:10:20 10° SSW
Cosmos 1634 Rocket 4.1 20:03:39 10° N 20:09:11 56° NE 20:09:11 56° NE
Cosmos 2082 3.7 20:06:20 10° SSW 20:11:25 68° SSE 20:11:25 68° SSE
Cosmos 2344 3.8 20:11:38 10° SW 20:19:35 62° NW 20:24:32 21° NNE
Cosmos 2227 Rocket 4.1 20:22:25 10° WSW 20:27:07 27° NW 20:31:52 10° N
SL-16 R/B 2.5 20:27:05 10° NNW 20:32:40 62° WSW 20:32:45 62° WSW
Atlas Centaur 2 4.4 20:58:24 10° WSW 21:02:51 19° SSW 21:02:51 19° SSW
